Regional Weather Roundup
Issued by NWS

Home | Current Version | Previous Version | Text Only | Print | Product List | Glossary Off
Versions: 1 2 3 4 5 6 7 8 9 10 11 12 13 14 15 16 17 18 19 20 21 22 23 24 25 26 27 28 29 30 31 32 33 34 35 36 37 38 39 40 41 42 43 44 45 46 47 48 49 50

000
ASUS43 KMKX 300721
RWRWI

WISCONSIN REGIONAL WEATHER ROUNDUP
NATIONAL WEATHER SERVICE MILWAUKEE/SULLIVAN WI
200 AM CDT TUE SEP 30 2014

NOTE: "FAIR" INDICATES FEW OR NO CLOUDS BELOW 12,000 FEET WITH NO
SIGNIFICANT WEATHER AND/OR OBSTRUCTIONS TO VISIBILITY.

WIZ001-002-006>008-014>016-023>028-300800-
NORTHWEST WISCONSIN

CITY           SKY/WX    TMP DP  RH WIND       PRES   REMARKS
SUPERIOR ARPT  CLOUDY    43  38  83 SE7       30.17F
ASHLAND        CLOUDY    42  39  89 E5        30.17F
HAYWARD        CLOUDY    41  39  93 E6        30.15S
SIREN          CLOUDY    42  40  90 E5        30.15S
CUMBERLAND     CLOUDY    39  36  87 E8        30.14S WCI  34
RICE LAKE      CLOUDY    41  37  86 N3        30.17R
CHETEK         CLOUDY    41  38  88 N3        30.15R
LADYSMITH      CLOUDY    41  38  86 NE6       30.16R
EAU CLAIRE     CLOUDY    43  37  79 NE10      30.13R
MENOMONIE      CLOUDY    43  38  83 NE9       30.13S
NEW RICHMOND   CLOUDY    42  39  90 E5        30.14R
OSCEOLA        CLOUDY    43  42  96 NE7       30.16S
$$

WIZ003>005-009-010-017-018-300800-
NORTH CENTRAL WISCONSIN

CITY           SKY/WX    TMP DP  RH WIND       PRES   REMARKS
MANITOWISH WTR CLOUDY    37  37 100 N8        30.15R WCI  30
ARBOR VITAE    CLOUDY    39  37  93 NE6       30.14S WCI  35
WOODRUFF       CLOUDY    39  37  93 NE6       30.14S WCI  35
RHINELANDER    CLOUDY    37  36  96 NE8       30.13F WCI  31
EAGLE RIVER    CLOUDY    38  37  97 NE8       30.13S WCI  32
LAND O LAKES   CLOUDY    38  37  98 NE7       30.14F FOG     WCI  33
PHILLIPS       CLOUDY    38  36  92 NE8       30.14R WCI  32
TOMAHAWK       CLOUDY    38  35  89 NE7       30.14R WCI  32
MEDFORD        CLOUDY    38  36  92 NE9       30.12S WCI  31
MERRILL        CLOUDY    39  37  93 NE5       30.13R
$$

WIZ029-030-035-036-043>047-300800-
CENTRAL WISCONSIN

CITY           SKY/WX    TMP DP  RH WIND       PRES   REMARKS
WAUSAU         CLOUDY    40  36  86 NE8       30.11F WCI  34
MOSINEE        CLOUDY    39  37  93 NE7       30.13R WCI  34
MARSHFIELD     CLOUDY    42  37  82 E9        30.11R
STEVENS POINT  CLOUDY    38  35  87 NE10      30.12S WCI  31
WAUPACA        CLOUDY    44  39  81 N9        30.13R
WAUTOMA        NOT AVBL
WISC RAPIDS    CLOUDY    44  38  79 NE8       30.13R
CAMP DOUGLAS   CLOUDY    45  45 100 NE8       30.11R
$$

WIZ011>013-019>022-031-037>040-048>050-300800-
NORTHEAST WISCONSIN

CITY           SKY/WX    TMP DP  RH WIND       PRES   REMARKS
ANTIGO         CLOUDY    38  36  93 NE12      30.11F WCI  30
SHAWANO        CLOUDY    44  39  82 N8        30.12F
OCONTO         CLOUDY    43  38  85 N9G16     30.11S
STURGEON BAY   NOT AVBL
GREEN BAY      CLOUDY    43  38  82 N13       30.11S
MANITOWOC      NOT AVBL
APPLETON       CLOUDY    41  36  81 N14       30.11S
CLINTONVILLE   CLOUDY    43  37  81 N8        30.12S
OSHKOSH        CLOUDY    45  39  79 N14       30.10S
$$

WIZ032>034-041-042-053>061-300800-
SOUTHWEST WISCONSIN

CITY           SKY/WX    TMP DP  RH WIND       PRES   REMARKS
LA CROSSE      MOCLDY    47  42  83 N3        30.11R
SPARTA         CLOUDY    45  43  93 NE5       30.11R
VIROQUA        CLOUDY    46  46  99 E8        30.08R
BOSCOBEL       CLOUDY    53  46  77 NE6       30.07R
PRAIRIE DU CHI CLOUDY    53  46  76 E7        30.06R
PLATTEVILLE    CLOUDY    51  48  89 NE7       30.07R
$$

WIZ056-057-062-063-064-067-068-300800-
SOUTH CENTRAL WISCONSIN

CITY           SKY/WX    TMP DP  RH WIND       PRES   REMARKS
REEDSBURG      CLOUDY    47  44  89 NE7       30.08S
BARABOO/DELLS  CLOUDY    46  41  85 NE9       30.09S
LONE ROCK      CLOUDY    55  46  71 E9        30.08R
MINERAL POINT  CLOUDY    50  46  87 NE7       30.06S
MADISON        CLOUDY    47  42  83 NE13      30.09R
MIDDLETON      CLOUDY    48  45  88 E9        30.09R
WATERTOWN      CLOUDY    47  44  89 N7        30.08R
MONROE         CLOUDY    50  48  93 NE12      30.05R
JANESVILLE     CLOUDY    50  43  76 N9        30.06R
$$

WIZ051-052-058>065-066-070>072-300800-
SOUTHEAST WISCONSIN

CITY           SKY/WX    TMP DP  RH WIND       PRES   REMARKS
MILWAUKEE      CLOUDY    48  42  80 N15G25    30.07R
WAUKESHA       CLOUDY    43  43 100 NE8       30.09R
MILWAUKEE/TIMM CLOUDY    45  39  81 NE12      30.09R
RACINE         LGT RAIN  48  44  86 N16G23    30.07R
BURLINGTON     CLOUDY    46  42  85 NE10G18   30.07R
KENOSHA        CLOUDY    49  44  83 N8G18     30.06R
FOND DU LAC    CLOUDY    45  39  79 NE17G24   30.10R
SHEBOYGAN      NOT AVBL
WEST BEND      CLOUDY    45  37  76 N8        30.08R
JUNEAU         CLOUDY    45  41  86 N10       30.09S
$$

LSZ147-162-300800-
LAKE SUPERIOR

STATION/POSITION TIME  TEMP    WIND        PRES    WAVE
                       AIR SEA DIR/SP/G            HT/PER
                 (UTC) (F)     (DEG/KT/KT) (MB)    (FT/S)
W MID LAKE BUOY  0650   45 50   60/ 10/ 12 1022.7R   4/ 6
DEVILS ISLAND    0700   44      80/ 12/ 14 1022.5F
SAXON HARBOR     0600   45      90/  4/  7 1022.4
$$

LMZ867-665-643>646-300800-
LAKE MICHIGAN

STATION/POSITION TIME  TEMP    WIND        PRES    WAVE
                       AIR SEA DIR/SP/G            HT/PER
                 (UTC) (F)     (DEG/KT/KT) (MB)    (FT/S)
CHAMBERS ISLAND  0600   47     340/ 21/ 26 1019.0S
S GREEN BAY BUOY 0600   47                 1020.2
N MID LAKE BUOY  0650   47 58  360/ 19/ 25 1017.8R   5/ 6
NORTHPORT PIER   0600   47     350/ 23/ 28 1018.6S
KEWAUNEE LAKESHO 0700   45     350/  7/ 12 1017.9R
SHEBOYGAN LAKESH 0700   46 55  360/ 23/ 26 1019.2R
PORT WASHINGTON  0600          350/  7/ 12 1019.0
ATWATER BUOY     0700   50     360/ 17/ 21 1019.2R
MILWAUKEE LAKESH 0700          350/ 16/ 23   N/A
S MID LAKE BUOY  0650   52 62  360/ 19/ 25 1016.6R   8/ 8
KENOSHA   LAKESH 0700           10/ 23/ 28 1017.3R
$$

TC  - TEMPERATURE IN CELSIUS
VSB - VISIBILITY IN STATUTE MILES
WCI - WIND CHILL INDEX
HX  - HEAT INDEX



USA.gov is the U.S. government's official web portal to all federal, state and local government web resources and services.